AKJ1906 VOBL-VAAH

Flight info

Callsign AKJ1906
Flight time N/A
Altitude 36000
Route OPAMO8A/09L OPAMO W56 BBI W88 PONIP/N0389F240 W218 MELAX W75 AAU J19 QQZ QQZ1A
Aircraft B38M/M-SDE1FGHILORVWXY/HB1

Departure

Time N/A
Airport Kempegowda International Airport Bengaluru (VOBL)

Arrival

Time 2026-04-22 18:26
Airport Sardar Vallabh Patel International Airport (VAAH)
Time Latitude Longitude Altitude Speed Heading
2026-04-22 17:26 18.44506 76.19475 35963 ft 490 kts 324°
2026-04-22 17:27 18.50568 76.16263 35970 ft 491 kts 324°
2026-04-22 17:27 18.56693 76.13013 35972 ft 490 kts 324°
2026-04-22 17:28 18.62786 76.09781 35976 ft 493 kts 324°
2026-04-22 17:28 18.68901 76.06537 35982 ft 490 kts 324°
2026-04-22 17:29 18.74956 76.03319 35977 ft 490 kts 324°
2026-04-22 17:29 18.81067 76.00067 35976 ft 491 kts 324°
2026-04-22 17:30 18.87119 75.96853 35970 ft 486 kts 324°
2026-04-22 17:30 18.93218 75.93606 35958 ft 487 kts 324°
2026-04-22 17:31 18.99286 75.90363 35947 ft 489 kts 324°
2026-04-22 17:31 19.05378 75.87112 35942 ft 488 kts 324°
2026-04-22 17:32 19.11448 75.83868 35940 ft 489 kts 324°
2026-04-22 17:32 19.17360 75.80705 35937 ft 488 kts 324°
2026-04-22 17:33 19.23393 75.77483 35939 ft 489 kts 324°
2026-04-22 17:33 19.29504 75.74208 35936 ft 489 kts 324°
2026-04-22 17:34 19.35561 75.70970 35936 ft 488 kts 324°
2026-04-22 17:34 19.41646 75.67705 35924 ft 487 kts 324°
2026-04-22 17:35 19.47643 75.64490 35920 ft 485 kts 324°
2026-04-22 17:35 19.53631 75.61156 35924 ft 485 kts 322°
2026-04-22 17:36 19.59376 75.57565 35927 ft 481 kts 320°
2026-04-22 17:36 19.65119 75.53870 35931 ft 481 kts 320°
2026-04-22 17:37 19.70885 75.50209 35938 ft 479 kts 320°
2026-04-22 17:37 19.76609 75.46600 35934 ft 479 kts 321°
2026-04-22 17:38 19.82293 75.43020 35934 ft 480 kts 321°
2026-04-22 17:38 19.88004 75.39314 35940 ft 479 kts 317°
2026-04-22 17:39 19.93375 75.35261 35949 ft 472 kts 315°
2026-04-22 17:40 20.01137 75.29085 35970 ft 472 kts 315°
2026-04-22 17:40 20.06404 75.24929 35981 ft 470 kts 315°
2026-04-22 17:41 20.11677 75.20805 35991 ft 472 kts 315°
2026-04-22 17:41 20.16873 75.16757 35997 ft 471 kts 316°
2026-04-22 17:42 20.22183 75.12621 36001 ft 472 kts 316°
2026-04-22 17:42 20.27454 75.08519 36001 ft 472 kts 316°
2026-04-22 17:43 20.32769 75.04370 35977 ft 469 kts 316°
2026-04-22 17:43 20.38043 75.00256 35952 ft 470 kts 316°
2026-04-22 17:44 20.43299 74.96149 35935 ft 469 kts 317°
2026-04-22 17:44 20.48575 74.92025 35915 ft 469 kts 317°
2026-04-22 17:45 20.53828 74.87916 35894 ft 467 kts 317°
2026-04-22 17:45 20.59072 74.83802 35906 ft 471 kts 317°
2026-04-22 17:46 20.64311 74.79682 35900 ft 470 kts 318°
2026-04-22 17:46 20.69602 74.75546 35904 ft 468 kts 318°
2026-04-22 17:47 20.74826 74.71503 35908 ft 468 kts 319°
2026-04-22 17:47 20.80085 74.67429 35917 ft 465 kts 319°
2026-04-22 17:48 20.84464 74.64030 35915 ft 469 kts 320°
2026-04-22 17:48 20.90548 74.59306 35921 ft 466 kts 319°
2026-04-22 17:49 20.95758 74.55251 35910 ft 463 kts 320°
2026-04-22 17:50 21.06163 74.47147 35909 ft 465 kts 320°
2026-04-22 17:50 21.11193 74.43224 35912 ft 467 kts 320°
2026-04-22 17:51 21.20821 74.35706 35904 ft 465 kts 320°
2026-04-22 17:52 21.25935 74.31713 35912 ft 465 kts 320°
2026-04-22 17:52 21.31104 74.27666 35915 ft 466 kts 320°
2026-04-22 17:53 21.36089 74.23292 35908 ft 463 kts 314°
2026-04-22 17:53 21.40709 74.18544 35884 ft 465 kts 313°
2026-04-22 17:54 21.45277 74.13726 35872 ft 461 kts 313°
2026-04-22 17:54 21.49822 74.08984 35872 ft 462 kts 313°
2026-04-22 17:55 21.54475 74.04177 35883 ft 464 kts 314°
2026-04-22 17:55 21.59061 73.99458 35674 ft 457 kts 315°
2026-04-22 17:55 21.61349 73.97109 35363 ft 450 kts 315°
2026-04-22 17:56 21.63593 73.94804 34909 ft 447 kts 315°
2026-04-22 17:56 21.65826 73.92512 34393 ft 444 kts 316°
2026-04-22 17:56 21.68036 73.90239 33891 ft 442 kts 317°
2026-04-22 17:56 21.70227 73.87984 33369 ft 440 kts 317°
2026-04-22 17:57 21.72420 73.85723 32839 ft 438 kts 317°
2026-04-22 17:57 21.74630 73.83444 32304 ft 436 kts 317°
2026-04-22 17:57 21.76790 73.81216 31784 ft 434 kts 317°
2026-04-22 17:57 21.78949 73.78991 31238 ft 432 kts 317°
2026-04-22 17:58 21.81120 73.76753 30697 ft 430 kts 318°
2026-04-22 17:58 21.83266 73.74538 30165 ft 428 kts 318°
2026-04-22 17:58 21.85393 73.72337 29624 ft 426 kts 318°
2026-04-22 17:58 21.87542 73.70114 29082 ft 424 kts 318°
2026-04-22 17:59 21.89655 73.67929 28549 ft 421 kts 318°
2026-04-22 17:59 21.91763 73.65749 28013 ft 419 kts 318°
2026-04-22 17:59 21.93848 73.63593 27491 ft 417 kts 318°
2026-04-22 17:59 21.95952 73.61415 26969 ft 415 kts 318°
2026-04-22 18:00 21.97326 73.59994 26620 ft 413 kts 318°
2026-04-22 18:00 22.00087 73.57134 25928 ft 410 kts 318°
2026-04-22 18:00 22.02108 73.55038 25428 ft 408 kts 318°
2026-04-22 18:00 22.04138 73.52932 24925 ft 406 kts 317°
2026-04-22 18:01 22.06185 73.50809 24420 ft 403 kts 318°
2026-04-22 18:01 22.08202 73.48718 23913 ft 401 kts 318°
2026-04-22 18:01 22.10190 73.46658 23415 ft 398 kts 317°
2026-04-22 18:01 22.12168 73.44604 22926 ft 396 kts 317°
2026-04-22 18:02 22.14117 73.42577 22442 ft 393 kts 317°
2026-04-22 18:02 22.16057 73.40560 21965 ft 390 kts 317°
2026-04-22 18:02 22.17975 73.38567 21487 ft 387 kts 317°
2026-04-22 18:02 22.19929 73.36534 21005 ft 383 kts 317°
2026-04-22 18:03 22.21829 73.34559 20532 ft 380 kts 317°
2026-04-22 18:03 22.23621 73.32694 20088 ft 377 kts 316°
2026-04-22 18:03 22.25508 73.30725 19620 ft 374 kts 316°
2026-04-22 18:03 22.27373 73.28777 19153 ft 371 kts 316°
2026-04-22 18:04 22.29225 73.26845 18686 ft 367 kts 316°
2026-04-22 18:04 22.31058 73.24935 18227 ft 364 kts 316°
2026-04-22 18:04 22.32871 73.23025 17764 ft 361 kts 315°
2026-04-22 18:04 22.34555 73.21017 17303 ft 358 kts 310°
2026-04-22 18:05 22.36090 73.18919 16877 ft 355 kts 307°
2026-04-22 18:05 22.37554 73.16800 16436 ft 352 kts 306°
2026-04-22 18:05 22.39006 73.14680 15993 ft 350 kts 306°
2026-04-22 18:05 22.40456 73.12582 15547 ft 348 kts 306°
2026-04-22 18:06 22.41913 73.10501 15103 ft 345 kts 306°
2026-04-22 18:06 22.43365 73.08446 14669 ft 343 kts 306°
2026-04-22 18:06 22.44813 73.06408 14233 ft 341 kts 305°
2026-04-22 18:06 22.46257 73.04378 13801 ft 339 kts 305°
2026-04-22 18:07 22.47692 73.02358 13367 ft 337 kts 305°
2026-04-22 18:07 22.49120 73.00349 12933 ft 335 kts 304°
2026-04-22 18:07 22.50532 72.98359 12501 ft 333 kts 304°
2026-04-22 18:07 22.51920 72.96400 12072 ft 331 kts 304°
2026-04-22 18:08 22.53318 72.94430 11642 ft 329 kts 304°
2026-04-22 18:08 22.54715 72.92461 11209 ft 327 kts 304°
2026-04-22 18:08 22.56085 72.90527 10781 ft 325 kts 304°
2026-04-22 18:08 22.57459 72.88585 10350 ft 323 kts 304°
2026-04-22 18:09 22.58822 72.86657 9934 ft 321 kts 304°
2026-04-22 18:09 22.60158 72.84770 9708 ft 312 kts 304°
2026-04-22 18:09 22.61459 72.82890 9337 ft 309 kts 302°
2026-04-22 18:09 22.62689 72.80988 8892 ft 309 kts 301°
2026-04-22 18:10 22.63886 72.79082 8499 ft 306 kts 300°
2026-04-22 18:10 22.65078 72.77183 8104 ft 296 kts 301°
2026-04-22 18:10 22.66221 72.75379 7741 ft 286 kts 301°
2026-04-22 18:10 22.67329 72.73640 7382 ft 277 kts 301°
2026-04-22 18:11 22.68415 72.71938 7044 ft 273 kts 301°
2026-04-22 18:11 22.69486 72.70257 6691 ft 272 kts 302°
2026-04-22 18:11 22.70549 72.68591 6521 ft 262 kts 302°
2026-04-22 18:11 22.71570 72.66992 6447 ft 250 kts 301°
2026-04-22 18:12 22.72617 72.65462 6391 ft 262 kts 309°
2026-04-22 18:12 22.74085 72.64221 6293 ft 273 kts 334°
2026-04-22 18:12 22.75288 72.63779 6275 ft 277 kts 343°
2026-04-22 18:12 22.77840 72.63203 5989 ft 280 kts 346°
2026-04-22 18:13 22.79750 72.62760 5667 ft 277 kts 345°
2026-04-22 18:13 22.81625 72.62260 5371 ft 273 kts 343°
2026-04-22 18:13 22.83438 72.61739 5063 ft 270 kts 342°
2026-04-22 18:13 22.85260 72.61208 4680 ft 271 kts 342°
2026-04-22 18:14 22.87125 72.60815 4294 ft 274 kts 353°
2026-04-22 18:14 22.89011 72.61101 3994 ft 275 kts 24°
2026-04-22 18:14 22.90540 72.62344 4021 ft 274 kts 44°
2026-04-22 18:14 22.91836 72.63886 4000 ft 275 kts 47°
2026-04-22 18:15 22.93099 72.65426 3989 ft 274 kts 46°
2026-04-22 18:15 22.94405 72.66943 3998 ft 274 kts 44°
2026-04-22 18:15 22.95738 72.68433 4002 ft 273 kts 44°
2026-04-22 18:15 22.97084 72.69910 4005 ft 275 kts 43°
2026-04-22 18:16 22.98428 72.71378 4004 ft 275 kts 44°
2026-04-22 18:16 22.99791 72.72870 4007 ft 275 kts 43°
2026-04-22 18:16 23.01139 72.74345 4015 ft 274 kts 44°
2026-04-22 18:16 23.02473 72.75786 4004 ft 265 kts 43°
2026-04-22 18:17 23.03763 72.77155 3947 ft 253 kts 42°
2026-04-22 18:17 23.05024 72.78487 3826 ft 245 kts 43°
2026-04-22 18:17 23.06237 72.79771 3591 ft 243 kts 42°
2026-04-22 18:17 23.07407 72.81016 3511 ft 230 kts 43°
2026-04-22 18:18 23.08541 72.82226 3391 ft 221 kts 42°
2026-04-22 18:18 23.09604 72.83356 3297 ft 209 kts 42°
2026-04-22 18:18 23.10623 72.84441 3147 ft 199 kts 41°
2026-04-22 18:18 23.11532 72.85407 2915 ft 197 kts 41°
2026-04-22 18:19 23.12548 72.86430 2624 ft 194 kts 33°
2026-04-22 18:19 23.13754 72.86999 2300 ft 186 kts 357°
2026-04-22 18:19 23.14981 72.86716 2053 ft 175 kts 330°
2026-04-22 18:19 23.15982 72.86025 2015 ft 170 kts 313°
2026-04-22 18:20 23.16603 72.84941 2015 ft 171 kts 283°
2026-04-22 18:20 23.16748 72.83658 2015 ft 169 kts 275°
2026-04-22 18:20 23.16871 72.82377 2009 ft 169 kts 277°
2026-04-22 18:20 23.17019 72.81119 1992 ft 169 kts 277°
2026-04-22 18:21 23.17166 72.79846 1931 ft 169 kts 277°
2026-04-22 18:21 23.17306 72.78571 1902 ft 168 kts 277°
2026-04-22 18:21 23.17443 72.77313 1901 ft 168 kts 277°
2026-04-22 18:21 23.17585 72.76040 1903 ft 169 kts 277°
2026-04-22 18:22 23.17682 72.74774 1899 ft 169 kts 268°
2026-04-22 18:22 23.17257 72.73572 1894 ft 173 kts 233°
2026-04-22 18:22 23.16451 72.72720 1923 ft 156 kts 227°
2026-04-22 18:22 23.15650 72.71892 1923 ft 156 kts 230°
2026-04-22 18:23 23.14887 72.71053 1776 ft 156 kts 230°
2026-04-22 18:23 23.14114 72.70236 1584 ft 154 kts 229°
2026-04-22 18:23 23.13350 72.69427 1394 ft 154 kts 229°
2026-04-22 18:24 23.11807 72.67784 994 ft 156 kts 227°
2026-04-22 18:24 23.11036 72.66962 797 ft 157 kts 227°
2026-04-22 18:24 23.09465 72.65292 389 ft 158 kts 225°
2026-04-22 18:25 23.08692 72.64471 220 ft 156 kts 225°
2026-04-22 18:25 23.07951 72.63680 191 ft 134 kts 225°
2026-04-22 18:25 23.07432 72.63132 186 ft 79 kts 225°
2026-04-22 18:26 23.07037 72.62709 190 ft 15 kts 225°
2026-04-22 18:26 23.06959 72.62627 192 ft 18 kts 225°
2026-04-22 18:26 23.06864 72.62525 194 ft 20 kts 224°
2026-04-22 18:26 23.06761 72.62415 195 ft 21 kts 224°
2026-04-22 18:27 23.06734 72.62348 195 ft 8 kts 301°
2026-04-22 18:27 23.06795 72.62277 193 ft 15 kts 314°
2026-04-22 18:27 23.06864 72.62200 192 ft 10 kts 314°
2026-04-22 18:27 23.06916 72.62144 191 ft 9 kts 314°
2026-04-22 18:28 23.06924 72.62087 191 ft 7 kts 240°
2026-04-22 18:28 23.06939 72.62031 191 ft 10 kts 310°
2026-04-22 18:28 23.06985 72.61977 192 ft 6 kts 314°
2026-04-22 18:28 23.07005 72.61965 192 ft 3 kts
2026-04-22 18:29 23.07020 72.61979 192 ft 1 kts 53°
2026-04-22 18:29 23.07026 72.61987 192 ft 1 kts 48°
2026-04-22 18:29 23.07032 72.61994 192 ft 0 kts 47°
2026-04-22 18:29 23.07034 72.61996 192 ft 0 kts 45°